Date,TemperatureHighF,TemperatureAvgF,TemperatureLowF,DewpointHighF,DewpointAvgF,DewpointLowF,HumidityHigh,HumidityAvg,HumidityLow,PressureMaxIn,PressureMinIn,WindSpeedMaxMPH,WindSpeedAvgMPH,GustSpeedMaxMPH,PrecipitationSumIn
2013-11-1,53.9,44.9,39.5,42.0,39.3,36.8,93,82,62,29.95,29.54,14,7,34,0.00
2013-11-2,51.5,42.2,34.6,39.8,36.5,32.3,94,81,58,30.17,29.96,11,4,24,0.00
2013-11-3,55.9,46.7,35.6,39.1,35.0,31.7,87,65,41,30.17,29.89,12,6,30,0.00
2013-11-4,49.7,44.5,30.9,45.6,38.7,29.0,93,81,63,30.24,29.86,18,4,32,0.04
2013-11-5,40.9,32.9,23.9,36.6,30.8,22.2,95,92,81,30.31,30.07,13,3,31,0.26
2013-11-6,35.5,31.1,25.8,32.0,28.0,23.4,95,89,76,30.32,30.09,10,3,22,0.27
2013-11-7,37.5,31.7,25.9,31.4,28.1,24.2,94,87,72,30.40,30.30,16,4,28,0.03
2013-11-8,50.6,38.9,23.5,43.0,32.2,21.4,94,78,55,30.32,29.75,11,4,25,0.00
2013-11-9,47.4,42.0,33.1,42.5,36.2,27.9,88,80,69,30.36,29.80,25,12,45,0.00
2013-11-10,39.3,35.4,27.2,33.1,30.3,24.4,90,82,75,30.46,30.18,15,4,27,0.00
2013-11-11,38.6,24.3,11.9,33.7,19.5,8.5,93,82,71,30.86,30.19,12,6,32,0.01
2013-11-12,27.7,17.4,6.3,16.6,11.5,3.5,89,78,60,30.96,30.62,9,3,22,0.02
2013-11-13,54.5,35.7,21.5,39.2,26.6,14.5,78,70,52,30.61,30.01,14,7,34,0.01
2013-11-14,53.7,38.8,32.0,45.6,35.0,28.4,94,87,74,30.01,29.87,10,2,24,0.01
2013-11-15,56.3,41.2,29.0,45.0,36.0,27.5,95,83,64,29.95,29.69,5,2,18,0.01
2013-11-16,58.6,47.7,41.7,55.1,44.1,35.1,93,87,75,29.69,29.27,7,4,20,0.01
2013-11-17,46.8,41.2,34.8,40.3,36.7,30.2,94,84,73,29.99,29.40,24,11,47,0.01
2013-11-18,39.6,32.1,22.9,30.4,26.2,20.1,91,79,63,30.35,29.99,24,10,49,0.00
2013-11-19,50.0,39.0,22.6,36.9,31.0,19.8,91,74,60,30.35,29.97,10,6,30,0.00
2013-11-20,44.7,41.2,32.1,36.7,34.0,30.3,93,76,63,30.09,29.91,8,5,25,0.00
2013-11-21,34.1,26.2,20.2,32.8,23.1,17.7,95,88,79,30.65,30.09,22,10,38,0.00
2013-11-22,34.8,20.4,7.4,17.3,12.3,4.3,89,72,40,30.77,30.63,19,8,42,0.00
2013-11-23,17.1,9.2,4.8,8.1,3.8,1.3,86,79,62,31.01,30.77,20,6,32,0.00
2013-11-24,30.2,17.4,4.4,17.7,10.0,0.9,87,73,54,30.87,30.20,20,9,31,0.00
2013-11-25,42.7,34.1,25.6,30.7,25.0,17.5,82,69,57,30.21,30.10,21,11,32,0.00
2013-11-26,33.0,22.4,12.0,24.6,13.1,6.8,80,67,56,30.51,30.21,24,12,36,0.00
2013-11-27,25.8,16.4,5.0,13.5,9.4,2.2,89,74,55,30.52,30.16,11,4,30,0.00
2013-11-28,29.2,18.8,9.8,19.6,12.1,6.3,90,76,57,30.64,30.16,19,6,30,0.00
2013-11-29,35.4,22.3,5.8,25.0,15.9,2.7,89,77,58,30.64,30.24,11,5,30,0.00
2013-11-30,45.0,33.0,24.6,32.3,26.5,21.8,90,77,60,30.26,30.13,13,5,30,0.00